Flag for U.S.A. Weather past 2 weeks in Rancho Cucamonga, California, U.S.A.

Now
85 °F

Broken clouds.


Feels Like: 86 °F
Forecast: 70 / 90 °F
Wind: 8 mph from West

Location: Ontario International Airport

Current Time: Jul 30, 2015 at 8:15:27 PM

Latest Report: Jul 30, 2015 at 6:53 PM


Visibility: 10 mi

Pressure: 29.93 "Hg

Humidity: 50%

Dew point: 64 °F

Location of Rancho CucamongaLocation

Historic Weather in Rancho Cucamonga — Graph

°F

Rancho Cucamonga temperature yesterday

Maximum temperature yesterday: 95 °F (at 1:53 PM)
Minimum temperature yesterday: 66 °F (at 4:53 AM)
Average temperature yesterday: 78 °F

Past Weeks' High & Low Weather Summary

 TemperatureHumidityPressure
High96 °F (Jul 17, 2:53 PM)93% (Jul 20, 3:53 AM)30.05 "Hg (Jul 20, 3:53 AM)
Low63 °F (Jul 16, 1:53 AM)18% (Jul 17, 2:53 PM)29.73 "Hg (Jul 17, 5:53 PM)
Average76 °F61%29.90 "Hg
* Reported Jul 15 6:53 PM — Jul 30 6:53 PM, Rancho Cucamonga, Weather by CustomWeather, © 2015

Note: Actual official high and low records may vary slightly from our data, if they occured in-between our weather recording intervals... More about our weather records

Advertising

Rancho Cucamonga weather history for previous 24 hours

 ConditionsComfort  
Time TempWeatherWind HumidityBarometerVisibility
6:53 PM
Thu, Jul 30
85 °FBroken clouds.8 mph50%29.93 "Hg10 mi
5:53 PM89 °FBroken clouds.13 mph43%29.90 "Hg10 mi
4:53 PM92 °FScattered clouds.20 mph41%29.88 "Hg10 mi
3:53 PM94 °FScattered clouds.15 mph38%29.88 "Hg10 mi
1:53 PM96 °FScattered clouds.16 mph35%29.90 "Hg10 mi
12:53 PM94 °FScattered clouds.10 mph37%29.92 "Hg10 mi
11:53 AM90 °FScattered clouds.9 mph42%29.95 "Hg10 mi
10:53 AM85 °FScattered clouds.8 mph50%29.96 "Hg8 mi
9:53 AM80 °FPartly sunny.6 mph58%29.96 "Hg7 mi
8:53 AM77 °FBroken clouds.3 mph62%29.96 "Hg7 mi
7:53 AM74 °FPartly sunny.No wind67%29.96 "Hg8 mi
6:53 AM73 °FPassing clouds.No wind69%29.94 "Hg9 mi
5:53 AM71 °FPassing clouds.No wind73%29.93 "Hg9 mi
4:53 AM71 °FClear.No wind73%29.93 "Hg9 mi
3:53 AM71 °FPassing clouds.5 mph73%29.92 "Hg9 mi
2:53 AM71 °FPassing clouds.No wind73%29.92 "Hg9 mi
1:53 AM72 °FPassing clouds.3 mph71%29.92 "Hg10 mi
12:53 AM71 °FPassing clouds.3 mph73%29.93 "Hg10 mi
11:53 PM
Wed, Jul 29
72 °FPassing clouds.6 mph71%29.94 "Hg10 mi
10:53 PM73 °FPassing clouds.6 mph69%29.94 "Hg10 mi
9:53 PM74 °FPassing clouds.12 mph67%29.94 "Hg10 mi
8:53 PM76 °FPassing clouds.7 mph62%29.92 "Hg10 mi
Weather by CustomWeather, © 2015

See weather overviewHow to use our weather pages